This demonstration page uses our WeatherBlox Daily Observations layout. Learn more.

Left ArrowRight Arrow

Hourly Observations for September 3, 2017

Temp ( °F °C ) Dew Point ( °F °C ) Humidity (%) Winds ( mph kmh ) Pressure ( in mb ) Visibility ( mi km ) Precip ( " mm )
12:10 am 00:10 Partly Cloudy 52 11 50 10 94 94 Calm 30.06 1018 10 16.0934 N/A
12:30 am 00:30 Mostly Cloudy 54 12 52 11 94 94 S 5 7 30 1016 10 16.0934 N/A
12:49 am 00:49 Mostly Cloudy 55 13 54 12 94 94 SSE 5 7 30 1016 10 16.0934 N/A
1:10 am 01:10 Partly Cloudy 54 12 52 11 94 94 Calm 30.03 1017 10 16.0934 N/A
1:30 am 01:30 Mostly Cloudy 54 12 54 12 100 100 Calm 30.03 1017 10 16.0934 N/A
1:49 am 01:49 Mostly Cloudy 54 12 54 12 100 100 SSW 3 6 30 1016 10 16.0934 N/A
2:10 am 02:10 Mostly Cloudy 55 13 54 12 94 94 Calm 30 1016 10 16.0934 N/A
2:30 am 02:30 Cloudy 55 13 55 13 100 100 Calm 30 1016 10 16.0934 N/A
2:49 am 02:49 Cloudy 57 14 55 13 94 94 Calm 30 1016 10 16.0934 N/A
3:10 am 03:10 Cloudy 57 14 55 13 94 94 S 5 7 30 1016 10 16.0934 N/A
3:30 am 03:30 Cloudy 57 14 55 13 94 94 Calm 30 1016 10 16.0934 N/A
3:49 am 03:49 Cloudy 57 14 55 13 94 94 S 5 7 30 1016 10 16.0934 N/A
4:10 am 04:10 Cloudy 57 14 55 13 94 94 S 3 6 30 1016 10 16.0934 N/A
4:30 am 04:30 Cloudy 57 14 55 13 94 94 S 5 7 30 1016 10 16.0934 N/A
4:49 am 04:49 Cloudy 57 14 55 13 94 94 S 3 6 30 1016 10 16.0934 N/A
5:10 am 05:10 Cloudy 57 14 55 13 94 94 S 3 6 30 1016 10 16.0934 N/A
5:29 am 05:29 Cloudy 57 14 55 13 94 94 S 3 6 30 1016 10 16.0934 N/A
5:49 am 05:49 Cloudy 57 14 55 13 94 94 S 3 6 30 1016 10 16.0934 N/A
6:10 am 06:10 Cloudy 57 14 54 12 88 88 S 3 6 30 1016 10 16.0934 N/A
6:29 am 06:29 Cloudy 57 14 54 12 88 88 S 3 6 30 1016 10 16.0934 N/A
6:50 am 06:50 Cloudy 57 14 54 12 88 88 SSW 3 6 30 1016 10 16.0934 N/A
7:10 am 07:10 Cloudy 57 14 54 12 88 88 Calm 30 1016 10 16.0934 N/A
7:29 am 07:29 Cloudy 57 14 54 12 88 88 SSW 3 6 30.03 1017 10 16.0934 N/A
7:50 am 07:50 Mostly Cloudy 57 14 54 12 88 88 SSW 3 6 30.03 1017 10 16.0934 N/A
8:10 am 08:10 Partly Cloudy 57 14 54 12 88 88 Calm 30.03 1017 10 16.0934 N/A
8:29 am 08:29 Sunny 57 14 54 12 88 88 S 3 6 30.03 1017 10 16.0934 N/A
8:50 am 08:50 Sunny 59 15 54 12 82 82 Calm 30.03 1017 10 16.0934 N/A
9:09 am 09:09 Sunny 61 16 54 12 77 77 Calm 30.03 1017 10 16.0934 N/A
9:29 am 09:29 Sunny 63 17 54 12 73 73 SW 5 7 30.03 1017 10 16.0934 N/A
9:50 am 09:50 Sunny 66 19 54 12 64 64 SW 6 9 30.03 1017 10 16.0934 N/A
10:09 am 10:09 Sunny 66 19 54 12 64 64 WSW 6 9 30.03 1017 10 16.0934 N/A
10:30 am 10:30 Sunny 68 20 54 12 60 60 WSW 3 6 30.03 1017 10 16.0934 N/A
10:50 am 10:50 Sunny 70 21 54 12 57 57 W 7 11 30.06 1018 10 16.0934 N/A
11:09 am 11:09 Sunny 70 21 55 13 60 60 W 7 11 30 1016 10 16.0934 N/A
11:30 am 11:30 Sunny 72 22 55 13 57 57 WSW 5 7 30 1016 10 16.0934 N/A
11:50 am 11:50 Sunny 72 22 55 13 57 57 Calm 30 1016 10 16.0934 N/A
12:09 pm 12:09 Sunny 73 23 55 13 53 53 W 3 6 30.03 1017 10 16.0934 N/A
12:30 pm 12:30 Sunny 75 24 57 14 54 54 NW 3 6 30.03 1017 10 16.0934 N/A
12:49 pm 12:49 Sunny 77 25 55 13 47 47 NW 6 9 30.03 1017 10 16.0934 N/A
1:10 pm 13:10 Sunny 77 25 54 12 44 44 NW 5 7 30.03 1017 10 16.0934 N/A
1:30 pm 13:30 Sunny 79 26 54 12 42 42 NW 5 7 30.03 1017 10 16.0934 N/A
1:50 pm 13:50 Sunny 79 26 54 12 42 42 NNW 8 13 30 1016 10 16.0934 N/A
2:09 pm 14:09 Sunny 79 26 54 12 42 42 NW 7 11 30 1016 10 16.0934 N/A
2:29 pm 14:29 Sunny 79 26 52 11 39 39 N 7 11 30 1016 10 16.0934 N/A
2:50 pm 14:50 Sunny 81 27 52 11 37 37 NW 6 9 30 1016 10 16.0934 N/A
3:09 pm 15:09 Sunny 81 27 52 11 37 37 NW 6 9 30 1016 10 16.0934 N/A
3:30 pm 15:30 Sunny 81 27 52 11 37 37 WNW 10 17 30 1016 10 16.0934 N/A
3:49 pm 15:49 Sunny 81 27 52 11 37 37 NW 10 17 30 1016 10 16.0934 N/A
4:10 pm 16:10 Sunny 81 27 52 11 37 37 N 8 13 30 1016 10 16.0934 N/A
4:30 pm 16:30 Sunny 81 27 52 11 37 37 NW 10 17 30 1016 10 16.0934 N/A
4:49 pm 16:49 Sunny 81 27 50 10 34 34 NW 8 13 30 1016 10 16.0934 N/A
5:10 pm 17:10 Sunny 79 26 52 11 39 39 WNW 10 17 30 1016 10 16.0934 N/A
5:30 pm 17:30 Sunny 81 27 52 11 37 37 NNW 8 13 30 1016 10 16.0934 N/A
5:49 pm 17:49 Sunny 81 27 50 10 34 34 NW 7 11 30 1016 10 16.0934 N/A
6:10 pm 18:10 Sunny 79 26 52 11 39 39 NNW 6 9 30 1016 10 16.0934 N/A
6:30 pm 18:30 Sunny 79 26 50 10 37 37 NW 7 11 30 1016 10 16.0934 N/A
6:49 pm 18:49 Sunny 79 26 54 12 42 42 NW 5 7 30 1016 10 16.0934 N/A
7:10 pm 19:10 Sunny 75 24 55 13 50 50 NNW 5 7 30 1016 10 16.0934 N/A
7:30 pm 19:30 Sunny 75 24 55 13 50 50 NNW 5 7 30 1016 10 16.0934 N/A
7:49 pm 19:49 Sunny 73 23 55 13 53 53 NNW 3 6 30 1016 10 16.0934 N/A
8:10 pm 20:10 Sunny 68 20 59 15 73 73 Calm 30.03 1017 10 16.0934 N/A
8:29 pm 20:29 Clear 64 18 59 15 83 83 Calm 30.03 1017 10 16.0934 N/A
8:49 pm 20:49 Clear 64 18 57 14 78 78 Calm 30.03 1017 10 16.0934 N/A
9:10 pm 21:10 Clear 63 17 57 14 83 83 Calm 30.03 1017 10 16.0934 N/A
9:29 pm 21:29 Clear 61 16 57 14 88 88 Calm 30.03 1017 10 16.0934 N/A
9:49 pm 21:49 Clear 61 16 57 14 88 88 Calm 30.03 1017 10 16.0934 N/A
10:10 pm 22:10 Clear 61 16 57 14 88 88 SSE 3 6 30.03 1017 10 16.0934 N/A
10:29 pm 22:29 Clear 59 15 57 14 94 94 SSE 3 6 30.03 1017 10 16.0934 N/A
10:49 pm 22:49 Clear 59 15 55 13 88 88 Calm 30.03 1017 10 16.0934 N/A
11:10 pm 23:10 Clear 57 14 55 13 94 94 S 3 6 30.03 1017 10 16.0934 N/A
11:29 pm 23:29 Clear 57 14 55 13 94 94 Calm 30.03 1017 10 16.0934 N/A
11:50 pm 23:50 Clear 57 14 55 13 94 94 Calm 30.03 1017 10 16.0934 N/A

Powered by AerisWeather